Regional Weather Roundup
Issued by NWS

Home | Current Version | Previous Version | Graphics & Text | Print | Product List | Glossary On
Versions: 1 2 3 4 5 6 7 8 9 10 11 12 13 14 15 16 17 18 19 20 21 22 23 24 25 26 27 28 29 30 31 32 33 34 35 36 37 38 39 40 41 42 43 44 45 46 47 48 49 50
000
ASUS45 KSLC 050410
RWRUT

UTAH REGIONAL WEATHER ROUNDUP
NATIONAL WEATHER SERVICE SALT LAKE CITY UT
900 PM MST WED MAR 04 2015

UTZ001>011-023>025-050500-

NORTHERN UTAH

CITY           SKY/WX    TMP DP  RH WIND       PRES   REMARKS
BRIGHAM CITY   CLEAR     31  20  64 CALM      30.31R
HILL AFB       CLEAR     28  15  58 E8        30.29R WCI  20
LOGAN          CLEAR     30  18  60 SE3       30.29R
OGDEN          CLEAR     28  20  71 S7        30.29R WCI  21
PROVO AIRPORT  CLEAR     30  18  59 NW5       30.32R WCI  25
SALT LAKE CITY CLEAR     32  21  64 SE7       30.31R WCI  26
VERNAL         PTCLDY    25  14  63 NW7       30.24R WCI  17
WENDOVER       CLEAR     32  19  59 W5        30.30R WCI  27
HEBER CITY     CLEAR     21  14  73 CALM      30.27R
WEST JORDAN    CLEAR     28  21  74 SW8       30.31R WCI  20

$$

UTZ012>022-026-027-050500-

SOUTHERN/CENTRAL UTAH

CITY           SKY/WX    TMP DP  RH WIND       PRES   REMARKS
BLANDING       CLEAR     27  15  59 N8        30.29R WCI  19
BRYCE CANYON   CLEAR     16   8  71 NW14      30.24R WCI   2
CEDAR CITY     PTCLDY    23  16  74 E5        30.27R WCI  17
DELTA          CLEAR     31  20  62 NE3       30.31R
HANKSVILLE     CLEAR     34  23  64 W5        30.26R WCI  30
MILFORD        CLEAR     29  19  66 NW7       30.29R WCI  22
MOAB/CYNLANDS  CLEAR     29  20  69 CALM      30.22R
PRICE          CLEAR     28  11  48 CALM      30.23R
ST GEORGE      CLEAR     45  21  39 NE8       30.28R
KANAB          CLEAR     34  19  55 N14       30.29R WCI  24

$$

REGIONAL REPORTS     COLORADO/ARIZONA

CITY           SKY/WX    TMP DP  RH WIND       PRES   REMARKS
CRAIG, CO      CLEAR      9   2  73 SE5       30.24R WCI   1
GRAND JUNCTION CLEAR     30  12  47 E7        30.24R WCI  23
RIFLE          PTCLDY    23  13  65 SE3       30.28R
MONTROSE       CLEAR     28  18  66 SE8       30.27R WCI  20
CORTEZ         CLEAR     28  16  60 SE5       30.22R WCI  23
PAGE, AZ       CLEAR     41  18  39 S6        30.23R
GRAND CANYON   CLEAR     19  16  88 CALM      30.24R
KINGMAN        CLEAR     43  24  47 NE8       30.21R
FLAGSTAFF      CLEAR     27  13  55 E8        30.21R WCI  19

$$

REGIONAL REPORTS    NEVADA/IDAHO/WYOMING

CITY           SKY/WX    TMP DP  RH WIND       PRES   REMARKS
LAS VEGAS, NV  CLEAR     54  21  27 S7        30.19R
ELY            CLEAR     23  17  78 S8        30.27R WCI  14
ELKO           CLEAR     29  16  58 W3        30.26R
POCATELLO, ID  CLEAR     30  12  47 S10       30.27R WCI  21
EVANSTON, WY   PTCLDY    13   8  81 SW9       30.22R WCI   1
ROCK SPRINGS   CLEAR     16   6  65 W18       30.17R WCI   0

$$



USA.gov is the U.S. government's official web portal to all federal, state and local government web resources and services.